{"data":{"norad_id":66204,"intl_designator":"2025-243AD","name":"STARLINK-35490","alt_names":[],"object_type":"PAYLOAD","status":"ACTIVE","operator":null,"country":"US","launch_date":"2025-10-26","launch_site_code":"AFETR","launch_vehicle":null,"mission":null,"orbit_class":"UNKNOWN","rcs_meters":null,"size_class":null,"mass_kg":null,"dimensions":null,"purposes":["comms"],"wikipedia_slug":null,"has_3d_model":false,"image_url":null,"decayed_at":null,"tle_current":{"epoch":"2026-05-24T17:19:30.993600Z","epoch_age_seconds":99870,"freshness":"FRESH","line1":"1 66204U 25243AD  26144.72188650  .00018068  00000+0  62000-3 0  9991","line2":"2 66204  53.1583 252.1624 0000999  81.8720 278.2394 15.30235100 32291","mean_motion":15.302351,"eccentricity":9.99e-5,"inclination_deg":53.1583,"raan_deg":252.1624,"arg_perigee_deg":81.872,"mean_anomaly_deg":278.2394,"bstar":0.00062,"rev_number":3229,"period_min":94.103187150785,"perigee_km":474.42562974722,"apogee_km":475.7949085516,"semimajor_km":6853.2472691494,"source":"CELESTRAK","updated_at":"2026-05-25T13:38:21.125774Z"}}}